Simultaneous Nadir Overpasses (SNOs) Predictions

Prediction of SNOs between GOES-15 and LANDSAT-8 Satellite Orbit:

Table of predicted SNOs for the next 14.0 days since TLE Epoch: 1/27/2024
Index Date Time (GOES-15) GOES-15 Lat,Lon LANDSAT-8 Lat,Lon Distance(km) Time Diff (sec)
1 01/27/2024 17:53:31 -0.01, 61.73 0.53, 64.30 292.45 80
2 01/28/2024 06:14:47 0.02, 61.73 0.57, 59.15 294.43 80
3 01/30/2024 06:05:17 0.02, 61.70 -0.04, 62.10 44.84 80
4 02/01/2024 05:53:07 0.02, 61.67 -0.68, 65.04 383.71 80
5 02/01/2024 18:14:31 -0.02, 61.64 -0.38, 59.84 203.67 80
6 02/03/2024 17:59:41 -0.01, 61.62 0.22, 62.80 134.23 80
7 02/04/2024 06:20:56 0.01, 61.64 0.86, 57.64 454.95 80
8 02/05/2024 17:47:31 0.01, 61.60 0.92, 65.74 471.12 80
9 02/06/2024 06:08:45 -0.01, 61.63 0.22, 60.59 117.98 80
10 02/08/2024 05:59:14 -0.00, 61.62 -0.43, 63.54 219.03 80
11 02/08/2024 18:20:38 0.00, 61.58 -0.67, 58.35 367.10 80
